Temperature
4 3 3 3 3 4 4 4 4 5 7 6 6 7 8 8 8 8 9 10 11 11 12 12 12 13 13 13 13 13 13 13 13 12 12 12 12 12 12 12 12 12 12 11
2 2 4 4 4 4 4 4 4 5 6 6 6 6 7 8 8 9 9 10 11 11 12 12 12 12 13 13 13 13 13 13 13 13 12 12 12 12 12 12 12 12 12 11
2 3 4 4 4 3 3 4 4 4 5 5 5 5 6 7 8 9 10 10 11 11 12 12 12 12 12 13 13 13 13 13 13 13 12 12 12 11 11 11 12 12 12 12
2 3 4 3 3 3 3 4 5 5 4 4 5 5 5 7 8 8 9 10 10 11 12 12 12 12 13 13 13 13 13 13 13 12 12 12 12 12 12 12 12 12 12 12
2 3 3 3 3 4 3 4 4 4 4 3 4 4 5 6 7 8 8 9 10 11 12 12 12 13 13 13 14 14 13 13 13 13 13 12 12 13 12 12 12 12 12 12
2 3 3 3 4 4 4 4 4 4 3 3 4 4 4 5 6 7 8 9 9 10 11 12 12 13 13 13 13 14 13 13 13 13 13 13 13 13 13 13 13 13 13 12
1 2 3 4 3 4 3 2 2 2 2 3 4 4 4 6 6 7 8 8 9 10 10 11 11 12 13 13 13 13 13 13 13 13 13 13 13 13 13 14 14 13 13 13
-0 1 2 3 3 3 2 2 2 2 2 3 4 4 5 5 6 7 7 8 8 9 10 10 11 12 12 13 13 13 13 13 13 13 13 14 14 13 14 14 14 14 14 14
-0 0 3 3 4 3 2 2 2 2 2 2 3 4 5 5 6 6 6 7 7 8 8 9 10 11 12 13 13 13 14 14 14 14 14 14 13 13 14 14 14 14 14 14
-0 -0 1 2 3 3 3 2 2 2 2 3 3 3 4 4 5 5 5 5 6 7 7 8 9 10 11 12 13 14 14 14 14 14 14 14 14 14 14 14 14 14 14 14
-0 -1 0 1 1 2 2 2 1 1 1 2 3 4 5 4 4 5 5 5 6 6 6 7 9 10 11 12 13 13 14 14 14 14 14 14 14 14 14 13 14 14 14 14
-0 -1 -1 -0 1 2 2 1 1 1 1 1 2 4 5 4 4 4 4 4 5 5 6 6 8 9 10 11 12 13 13 14 14 14 14 14 14 14 13 13 13 13 13 13
0 -1 -1 -0 0 0 -0 1 1 0 0 1 1 3 5 4 4 4 4 4 4 4 5 6 7 8 9 10 11 12 13 13 14 14 14 14 14 14 14 13 13 13 13 13
2 -1 -1 -1 -1 -1 -1 0 1 0 -0 0 1 2 4 3 3 3 3 3 4 4 4 5 6 7 8 9 10 11 12 13 13 13 13 13 14 14 14 13 13 13 13 12
-0 -1 -2 -1 -0 -0 0 1 1 0 0 0 1 2 3 3 2 2 3 3 3 3 4 4 5 6 7 8 10 11 12 12 13 13 13 13 14 13 13 13 12 12 12 12
-1 -1 -1 -1 0 0 0 1 1 1 1 1 1 2 3 2 2 2 2 2 2 3 3 4 5 5 6 7 9 10 11 12 12 12 13 13 13 13 12 12 12 12 12 12
-2 -2 -2 -1 -1 -0 -0 0 1 1 1 1 1 2 2 2 2 2 2 2 2 2 3 3 4 5 6 7 8 9 10 11 12 12 13 13 12 12 12 12 12 11 11 11
-2 -2 -2 -2 -2 -2 -0 1 1 1 1 1 1 1 1 1 2 2 2 2 2 2 2 3 4 5 5 6 8 9 10 11 11 12 12 12 12 12 12 11 11 11 11 11
-2 -2 -2 -2 -2 -2 -0 1 0 0 0 1 1 1 1 2 2 2 3 2 2 2 2 3 4 4 5 6 7 8 9 10 11 11 11 12 12 11 11 11 11 11 11 11
-2 -2 -2 -2 -2 -1 0 1 1 0 -0 1 1 1 1 1 0 1 3 2 2 2 3 3 4 4 5 6 7 8 9 9 10 11 11 11 11 11 11 11 11 10 10 10
-3 -3 -3 -2 -2 -1 0 1 1 -0 -0 1 1 1 1 -0 1 2 2 2 2 2 3 3 4 4 5 5 7 7 8 9 10 10 10 10 11 11 11 11 10 10 10 10
-3 -4 -4 -3 -3 -1 0 0 -0 -0 1 1 1 1 1 1 2 2 2 2 2 2 2 3 3 4 4 5 6 7 8 9 9 9 9 10 10 10 10 10 10 10 10 10
-3 -3 -3 -3 -1 -0 1 1 1 2 1 1 1 1 1 1 1 1 2 2 2 2 2 3 3 3 4 5 6 7 7 8 8 9 9 9 9 9 9 9 9 9 9 9
-3 -3 -3 -3 -2 -1 1 1 1 1 1 1 1 1 1 1 1 1 1 2 2 2 2 2 3 3 3 4 5 6 7 7 8 8 8 8 9 9 9 9 9 9 9 9
-3 -3 -3 -3 -2 -2 -0 1 1 1 1 1 1 1 1 1 1 1 1 1 1 1 2 2 2 3 3 4 5 6 6 7 7 7 8 8 8 8 8 8 8 9 9 9
-4 -3 -3 -2 -2 -2 -1 1 1 0 0 0 0 0 1 1 1 1 1 1 1 1 2 2 2 3 3 3 4 5 6 7 7 7 7 7 8 8 8 8 8 8 8 8
Wind_Speed
1 2 8 10 11 13 12 14 17 17 12 11 16 20 18 13 12 13 12 12 12 14 13 10 11 12 13 15 17 19 19 18 16 14 14 14 13 12 11 10 14 16 16 17
3 8 12 10 10 12 13 15 16 15 10 10 13 19 17 14 14 14 14 13 13 12 10 11 11 13 15 17 18 18 20 20 19 16 14 11 10 9 10 9 12 16 17 17
8 7 7 9 11 11 13 12 12 14 13 9 10 13 13 11 13 14 14 13 11 13 12 12 12 14 15 17 19 18 19 20 20 17 13 11 9 8 9 11 12 13 17 17
6 6 7 8 10 9 13 9 12 13 10 6 3 7 8 8 10 12 13 12 12 12 11 11 12 13 15 17 17 18 19 20 20 19 17 18 15 14 12 12 11 13 15 16
7 6 7 8 9 8 8 10 11 11 10 9 6 6 8 4 7 10 11 11 11 11 11 11 13 13 15 16 16 17 18 19 20 20 21 20 16 12 8 10 13 13 13 14
8 6 5 6 8 8 8 7 7 4 3 6 7 7 7 4 7 7 7 8 8 8 8 9 10 11 12 13 14 15 18 19 20 21 22 22 20 16 14 14 15 14 11 12
7 5 4 3 5 4 3 2 2 3 2 6 4 5 7 6 6 7 7 6 6 6 5 6 7 8 10 12 14 16 18 19 20 21 22 23 22 20 19 17 17 15 12 12
6 8 5 3 3 4 3 1 2 3 4 4 3 6 5 6 6 6 5 5 5 4 5 5 7 8 9 11 14 16 19 19 19 21 22 21 20 17 15 16 15 16 14 14
4 7 6 7 4 2 3 3 3 3 3 4 5 5 6 7 9 9 8 7 7 6 5 5 6 7 8 9 13 16 19 19 19 20 20 19 20 19 17 16 15 14 12 12
3 8 8 6 3 2 3 3 2 1 2 4 5 4 4 8 11 11 10 9 9 9 8 7 6 7 7 8 10 13 17 20 19 19 18 17 18 19 16 15 17 16 14 14
2 5 7 5 2 3 2 1 1 2 2 3 4 4 2 6 9 10 10 10 10 10 9 8 7 7 7 7 8 10 14 16 17 18 17 17 17 17 16 16 17 16 15 15
3 3 6 7 5 2 2 2 1 1 4 3 4 5 4 6 9 11 12 12 12 11 9 8 7 6 5 5 6 9 12 14 16 17 16 17 16 16 17 17 16 15 15 16
3 2 5 7 5 4 2 3 2 2 3 3 4 7 5 10 13 12 12 12 12 12 11 9 8 6 5 5 5 7 9 13 14 15 16 16 16 16 17 17 16 16 15 15
6 4 5 8 8 5 7 8 5 3 4 5 8 12 13 15 15 15 14 12 11 12 11 10 9 8 7 6 5 6 8 9 11 14 15 16 17 17 16 15 15 16 16 15
1 5 7 11 12 9 12 14 11 9 8 8 11 12 14 13 13 12 12 12 12 12 12 11 10 10 9 8 6 5 6 7 9 12 15 16 16 15 13 13 14 14 15 15
2 4 5 9 9 11 14 15 13 12 10 11 13 14 10 10 10 10 11 12 12 13 13 12 12 12 10 9 8 6 5 6 8 12 14 14 13 14 14 14 13 13 14 14
3 3 4 7 7 7 9 9 9 7 6 6 9 10 11 11 12 11 10 11 12 13 13 12 12 11 11 10 8 7 6 6 8 11 13 13 14 14 14 14 14 14 14 13
7 5 4 5 4 7 8 4 5 7 8 7 8 9 10 11 11 8 7 9 12 13 14 13 12 12 11 10 8 6 4 5 8 10 11 12 13 14 14 14 14 13 12 13
10 7 4 3 4 8 7 4 3 4 6 6 7 10 10 9 8 6 7 8 10 11 13 12 11 11 11 10 8 5 4 5 7 9 11 12 13 14 15 15 14 11 11 11
5 6 5 4 4 6 6 4 2 1 5 5 5 8 9 7 7 8 11 12 12 12 11 11 11 10 10 9 7 4 4 5 7 9 10 11 12 13 15 15 13 10 11 11
2 3 6 7 7 8 7 4 1 1 6 6 6 7 7 5 7 10 13 13 12 12 12 12 11 10 10 8 5 3 3 5 6 6 8 10 11 12 13 12 11 12 11 11
6 5 6 5 7 9 4 2 4 7 5 6 7 7 7 9 11 11 12 12 12 13 12 11 10 10 10 7 4 3 3 3 4 6 8 9 11 11 11 13 12 12 13 13
8 9 6 8 9 6 4 6 7 5 6 7 7 8 9 10 11 12 11 12 12 12 12 10 9 10 9 7 4 2 3 2 5 7 8 9 11 11 12 13 13 12 12 12
6 5 5 7 10 10 9 8 8 7 8 9 9 9 9 10 11 12 12 12 11 11 11 10 8 9 9 7 5 3 2 2 6 8 9 9 11 11 11 10 11 11 11 12
8 5 6 9 10 9 9 8 9 9 9 9 10 9 9 10 11 11 12 11 11 11 10 9 8 8 9 7 6 4 2 3 7 8 9 9 10 12 11 9 8 9 9 12
8 9 8 11 9 7 9 8 9 10 11 11 10 11 10 9 11 11 11 11 10 10 10 9 8 8 8 7 6 4 2 4 8 8 8 8 9 10 10 10 8 9 9 12
Wind_Direction
278 241 250 250 241 255 275 277 276 278 281 276 264 268 272 269 259 258 256 249 241 237 234 230 223 207 199 198 197 193 191 187 182 180 180 180 183 181 178 178 176 176 175 174
298 252 253 264 272 268 269 275 278 286 285 278 272 272 271 260 252 250 251 246 240 240 233 225 223 210 200 198 197 194 192 189 188 188 185 183 177 180 180 177 178 180 178 177
256 265 286 285 282 275 272 263 268 278 298 282 275 276 258 253 244 245 245 241 235 235 230 222 219 212 202 199 197 198 194 191 192 187 179 172 167 166 178 184 186 185 182 182
277 276 290 285 279 271 279 265 268 277 286 284 252 282 272 254 252 247 246 241 232 232 230 222 217 213 205 203 199 198 197 193 192 188 183 182 186 190 192 187 185 183 184 184
281 287 289 280 275 276 266 283 277 272 271 275 243 255 282 251 252 255 248 243 238 232 227 220 219 217 209 203 200 198 197 196 192 192 189 188 194 193 176 175 179 182 185 185
269 275 271 268 279 271 286 293 289 277 257 261 228 219 280 251 250 270 263 253 248 239 234 229 224 219 213 203 199 196 196 198 194 194 194 193 194 186 178 181 185 186 186 188
318 302 287 285 316 315 326 342 340 330 257 254 229 218 256 274 281 270 275 269 255 243 241 237 227 221 216 205 200 197 197 199 196 196 198 199 197 191 189 187 188 186 187 191
327 310 300 304 283 284 285 235 228 261 256 289 250 237 260 294 309 315 311 304 295 270 251 246 238 226 220 210 204 199 199 200 197 197 201 201 198 196 196 190 189 191 193 193
304 291 300 300 286 238 295 268 253 258 278 273 260 283 303 334 342 342 339 338 329 315 298 273 258 240 226 216 210 204 201 201 198 199 200 200 199 198 197 191 189 192 190 185
249 285 295 306 314 256 235 284 333 289 284 276 287 282 304 341 340 342 345 340 333 329 318 303 277 253 238 225 216 208 204 202 199 198 200 201 199 199 195 190 192 192 188 182
238 269 301 325 305 290 297 334 314 277 267 276 298 290 314 337 337 338 334 331 332 329 323 315 300 272 248 233 219 210 206 203 200 198 199 199 198 196 192 192 193 191 186 182
261 252 280 273 268 269 223 224 153 290 289 269 277 277 321 343 345 344 339 336 334 330 327 323 316 302 273 250 231 216 209 204 201 198 197 200 196 193 194 194 193 189 186 185
278 260 309 326 337 358 320 284 282 273 257 257 261 279 332 347 342 340 336 333 334 333 331 334 334 325 302 276 251 229 215 208 202 195 194 197 195 193 195 195 190 187 187 185
288 232 220 246 263 278 286 285 278 244 251 266 258 282 310 329 330 330 331 331 334 336 335 338 338 332 319 297 268 238 226 213 201 193 192 196 196 196 195 191 188 187 186 185
274 256 244 254 264 264 265 272 268 247 241 250 273 284 296 312 316 318 325 331 338 340 341 340 336 329 324 317 298 265 236 218 201 194 193 196 196 192 186 184 185 185 185 185
243 259 272 273 266 268 268 267 263 256 250 252 271 279 289 307 316 318 324 330 333 335 333 332 332 329 322 315 302 279 250 226 202 196 195 192 188 183 181 181 179 180 182 181
245 243 278 277 294 297 268 255 245 245 237 239 258 274 307 316 319 315 320 327 326 326 326 326 324 319 314 308 298 273 249 228 202 196 191 186 183 181 180 176 176 179 179 176
224 229 246 278 316 260 252 242 241 253 257 248 262 281 295 296 299 294 308 320 321 323 320 320 319 317 314 309 301 283 250 221 201 192 187 182 179 179 175 174 177 178 175 174
209 212 230 246 264 275 283 263 223 235 272 256 263 286 299 305 307 303 316 317 309 309 310 310 309 308 309 309 304 287 243 214 196 189 184 179 176 174 172 174 175 171 169 169
187 201 216 228 245 257 259 261 259 157 283 275 272 291 304 328 330 311 319 318 316 315 315 315 314 312 314 312 307 286 239 207 198 189 183 176 172 172 172 172 168 163 162 162
184 213 221 230 243 263 258 264 87 180 261 288 286 287 297 290 270 288 306 310 312 311 314 320 319 317 315 313 309 285 248 216 201 178 168 167 167 168 166 161 158 155 154 152
199 205 215 209 227 252 247 161 199 233 265 285 288 288 291 290 293 302 307 309 315 318 319 323 323 321 318 317 315 295 264 222 172 159 158 161 160 158 155 150 150 152 151 150
212 204 202 206 227 251 239 234 248 252 268 276 281 289 293 296 299 304 306 308 312 313 316 317 318 322 322 321 316 294 283 195 156 153 154 155 153 151 152 152 152 153 154 154
249 214 214 247 257 259 265 268 269 262 266 275 279 285 290 291 294 299 302 305 309 310 311 314 320 326 325 323 319 299 276 192 158 154 152 150 149 148 149 151 155 157 160 157
227 211 226 249 265 282 272 257 264 275 281 286 287 284 281 283 288 291 296 298 301 303 306 310 312 315 316 320 315 302 265 174 157 151 149 147 148 148 147 145 149 156 164 165
206 209 223 247 246 246 266 272 276 281 284 285 287 289 287 279 279 287 291 293 296 300 305 307 309 311 314 315 307 293 250 169 153 150 150 149 146 144 142 134 115 96 127 135
Height
1439 1441 1438 1434 1433 1431 1428 1426 1421 1415 1412 1412 1407 1401 1397 1396 1396 1395 1393 1393 1392 1393 1396 1399 1402 1406 1410 1415 1419 1424 1429 1434 1440 1445 1450 1455 1460 1465 1471 1476 1481 1485 1490 1495
1440 1438 1431 1429 1429 1428 1427 1424 1418 1412 1408 1408 1403 1397 1392 1390 1389 1387 1387 1386 1387 1388 1390 1393 1396 1400 1404 1408 1413 1418 1424 1428 1434 1439 1445 1451 1456 1462 1467 1472 1477 1481 1486 1491
1439 1433 1428 1428 1426 1426 1423 1421 1416 1412 1407 1405 1404 1395 1387 1381 1380 1380 1380 1380 1381 1382 1384 1387 1390 1394 1397 1402 1406 1412 1417 1422 1428 1434 1441 1448 1454 1458 1463 1467 1471 1476 1482 1487
1435 1430 1428 1426 1424 1423 1419 1413 1411 1409 1410 1406 1404 1398 1384 1379 1376 1374 1374 1374 1374 1376 1379 1381 1384 1388 1391 1395 1400 1406 1412 1417 1423 1429 1434 1440 1444 1448 1453 1459 1465 1472 1477 1483
1436 1429 1427 1425 1421 1419 1416 1412 1409 1407 1408 1407 1403 1402 1386 1378 1374 1370 1368 1368 1369 1371 1373 1375 1378 1382 1386 1390 1395 1400 1406 1412 1417 1422 1428 1433 1439 1444 1450 1456 1462 1467 1473 1478
1433 1428 1426 1422 1418 1416 1414 1411 1406 1405 1407 1407 1398 1400 1389 1379 1371 1367 1365 1364 1365 1366 1368 1370 1373 1377 1381 1385 1390 1394 1400 1405 1411 1416 1421 1427 1433 1439 1445 1450 1456 1462 1467 1473
1435 1428 1423 1421 1419 1415 1416 1417 1417 1416 1413 1406 1392 1391 1385 1374 1369 1366 1363 1362 1362 1364 1365 1367 1369 1372 1375 1379 1384 1388 1393 1399 1404 1410 1415 1421 1427 1433 1438 1444 1450 1455 1461 1466
1446 1437 1425 1421 1421 1420 1418 1419 1420 1418 1412 1401 1391 1387 1379 1372 1368 1364 1363 1361 1360 1360 1362 1363 1364 1367 1370 1373 1378 1382 1387 1392 1398 1403 1409 1415 1422 1428 1433 1439 1445 1450 1455 1461
1448 1438 1425 1421 1419 1419 1419 1417 1415 1415 1411 1406 1394 1386 1376 1370 1366 1363 1362 1360 1359 1358 1358 1359 1360 1362 1364 1367 1371 1376 1380 1386 1391 1396 1402 1408 1415 1421 1427 1433 1439 1445 1450 1456
1446 1442 1428 1422 1419 1417 1419 1417 1417 1416 1414 1404 1393 1388 1383 1374 1370 1365 1363 1361 1358 1357 1355 1355 1356 1357 1359 1362 1366 1370 1375 1379 1385 1390 1396 1401 1408 1415 1421 1428 1433 1439 1445 1451
1444 1444 1434 1427 1423 1422 1420 1419 1419 1418 1416 1410 1400 1387 1378 1376 1373 1369 1366 1363 1359 1356 1354 1352 1352 1353 1355 1357 1360 1364 1369 1374 1379 1384 1389 1395 1402 1408 1415 1421 1427 1433 1439 1445
1443 1443 1439 1431 1422 1420 1419 1420 1420 1423 1419 1414 1405 1390 1376 1376 1374 1371 1368 1364 1360 1356 1353 1350 1349 1349 1350 1352 1354 1358 1362 1367 1372 1378 1383 1389 1395 1402 1408 1415 1421 1427 1433 1439
1441 1441 1441 1431 1429 1425 1423 1420 1419 1420 1419 1414 1407 1390 1377 1375 1373 1371 1368 1364 1360 1355 1351 1348 1346 1346 1346 1347 1349 1352 1356 1360 1366 1371 1377 1383 1389 1395 1401 1408 1415 1421 1427 1433
1436 1437 1440 1439 1431 1428 1425 1420 1417 1419 1418 1412 1402 1390 1381 1378 1374 1371 1368 1364 1359 1355 1351 1347 1344 1343 1343 1343 1345 1346 1349 1354 1359 1365 1371 1376 1382 1388 1395 1402 1408 1415 1421 1427
1435 1435 1434 1429 1424 1423 1419 1414 1412 1412 1410 1409 1398 1391 1384 1380 1377 1373 1368 1364 1359 1355 1350 1347 1344 1342 1340 1339 1340 1342 1344 1348 1353 1359 1364 1370 1376 1383 1389 1396 1403 1409 1416 1421
1434 1433 1430 1424 1418 1417 1412 1406 1404 1402 1400 1398 1394 1388 1382 1379 1375 1371 1368 1363 1359 1354 1350 1346 1343 1340 1338 1336 1336 1338 1339 1343 1348 1353 1358 1364 1371 1377 1383 1390 1397 1404 1410 1416
1432 1432 1430 1423 1418 1414 1409 1400 1398 1396 1393 1393 1391 1385 1379 1376 1373 1369 1366 1362 1358 1354 1349 1345 1341 1338 1336 1334 1333 1334 1336 1339 1343 1348 1353 1359 1365 1371 1378 1385 1391 1398 1404 1410
1428 1429 1428 1424 1422 1421 1403 1394 1393 1392 1389 1388 1385 1381 1378 1375 1370 1367 1364 1361 1356 1351 1346 1342 1338 1335 1333 1330 1329 1329 1331 1334 1338 1343 1348 1353 1359 1366 1373 1379 1386 1392 1399 1405
1420 1424 1425 1423 1422 1412 1398 1392 1391 1391 1387 1383 1381 1377 1374 1370 1366 1362 1360 1358 1354 1350 1344 1340 1336 1332 1329 1326 1325 1326 1327 1331 1334 1338 1343 1348 1354 1360 1367 1374 1380 1387 1394 1400
1418 1419 1422 1420 1417 1409 1394 1388 1386 1389 1388 1380 1378 1375 1372 1369 1368 1362 1357 1354 1350 1346 1342 1337 1332 1328 1325 1323 1322 1322 1324 1327 1330 1334 1339 1344 1350 1356 1362 1369 1376 1382 1389 1396
1420 1420 1419 1416 1413 1401 1389 1385 1386 1393 1388 1378 1375 1373 1371 1369 1367 1361 1356 1352 1348 1344 1339 1334 1329 1325 1322 1320 1319 1319 1320 1323 1326 1330 1335 1341 1346 1353 1359 1365 1372 1379 1385 1392
1415 1418 1417 1414 1412 1400 1384 1384 1386 1383 1377 1375 1372 1370 1368 1365 1361 1357 1353 1349 1345 1340 1335 1331 1327 1323 1320 1318 1317 1317 1317 1320 1323 1327 1332 1337 1343 1349 1356 1362 1368 1375 1381 1388
1406 1404 1403 1402 1394 1383 1381 1379 1378 1376 1374 1372 1370 1367 1365 1361 1358 1354 1350 1346 1342 1338 1333 1329 1325 1322 1319 1317 1316 1315 1316 1318 1321 1325 1330 1335 1341 1347 1353 1359 1365 1371 1378 1383
1398 1394 1395 1393 1384 1379 1377 1375 1374 1373 1371 1368 1366 1364 1361 1358 1355 1351 1348 1344 1340 1336 1332 1328 1324 1320 1317 1315 1315 1314 1315 1317 1320 1323 1328 1333 1339 1344 1351 1357 1362 1368 1374 1379
1391 1390 1389 1386 1379 1375 1371 1370 1369 1367 1365 1364 1362 1360 1357 1354 1351 1348 1344 1340 1337 1333 1330 1326 1323 1320 1316 1314 1313 1313 1314 1316 1318 1322 1326 1331 1336 1342 1348 1354 1360 1366 1372 1376
1381 1383 1383 1376 1372 1371 1367 1365 1364 1362 1360 1358 1356 1353 1351 1350 1347 1343 1340 1336 1333 1330 1326 1323 1321 1318 1315 1313 1311 1311 1312 1314 1317 1320 1324 1328 1334 1340 1346 1351 1358 1364 1370 1376